sat.trackr.live / text

‹ back to catalog

ONEWEB-0199

NORAD 48234 · 2021-031AA

PAYLOAD ACTIVE UNKNOWN

§ Identity

Operator
Country
UK
Launch date
2021-04-25
Launch site
VOSTO
Launch vehicle
Mass (kg)
RCS (m²)

Purposes: comms

External: N2YO · Heavens-Above · Gunter

§ Orbital elements

Epoch: 2026-09-04T01:01:25.203648Z

Period
109.55 min
Inclination
87.8901°
Eccentricity
0.0002060
Mean motion
13.14519967 rev/d
Perigee alt
1,204.2 km
Apogee alt
1,207.3 km
Semi-major
7,583.9 km
B*
-7.6216e-3
RAAN
273.9780°
Arg perigee
95.4894°
Mean anomaly
264.6471°
Rev number
25,862

§ Raw data

ONEWEB-01991 48234U 21031AA  26247.04265282 -.00002813  00000+0 -76216-2 0  99972 48234  87.8901 273.9780 0002060  95.4894 264.6471 13.14519967258628

JSON: /api/v1/satellites/48234 · /tle

For live sub-satellite position, see the globe view (requires WebGL).

§ Visibility from observer

Set your observer location to see the next 7 days of passes ≥ 10°. The values pass through the URL so the page stays shareable.

No JS? Fill the form by hand. The geolocation button needs JavaScript.